Hourly Weather Riga

Today, 29 November, Sunday

Time Temperature Precipitation Wind Pressure Humidity
00:00 0°C° 0 mm 4 mps 767 mmHg 82%
01:00 0°C° 0 mm 4 mps 768 mmHg 83%
02:00 -1°C° 0 mm 4 mps 768 mmHg 86%
03:00 0°C° 0 mm 3 mps 768 mmHg 85%
04:00 0°C° 0 mm 3 mps 768 mmHg 85%
05:00 0°C° 0 mm 3 mps 768 mmHg 85%
06:00 0°C° 0 mm 3 mps 768 mmHg 85%
07:00 0°C° 0 mm 3 mps 768 mmHg 85%
08:00 0°C° 0 mm 3 mps 768 mmHg 86%
09:00 0°C° 0 mm 3 mps 768 mmHg 85%
10:00 0°C° 0 mm 3 mps 768 mmHg 83%
11:00 0°C° 0 mm 3 mps 768 mmHg 81%
12:00 0°C° 0 mm 3 mps 768 mmHg 80%
13:00 +1°C° 0 mm 3 mps 767 mmHg 79%
14:00 0°C° 0 mm 4 mps 767 mmHg 78%
15:00 -1°C° 0 mm 4 mps 767 mmHg 79%
16:00 -1°C° 0 mm 4 mps 766 mmHg 81%
17:00 -2°C° 0 mm 4 mps 766 mmHg 83%
18:00 -2°C° 0.1 mm 4 mps 766 mmHg 85%
19:00 -2°C° 0.1 mm 4 mps 766 mmHg 86%
20:00 -2°C° 0.1 mm 4 mps 766 mmHg 88%
21:00 -1°C° 0 mm 3 mps 766 mmHg 85%
22:00 -1°C° 0 mm 3 mps 765 mmHg 83%
23:00 -1°C° 0 mm 3 mps 765 mmHg 80%

Tomorrow, 30 November, Monday

Time Temperature Precipitation Wind Pressure Humidity
00:00 -1°C° 0 mm 3 mps 765 mmHg 82%
01:00 -1°C° 0 mm 2 mps 765 mmHg 84%
02:00 -2°C° 0 mm 2 mps 764 mmHg 85%
03:00 -2°C° 0 mm 2 mps 764 mmHg 87%
04:00 -2°C° 0 mm 2 mps 764 mmHg 88%
05:00 0°C° 0 mm 1 mps 763 mmHg 90%
06:00 0°C° 0.1 mm 1 mps 763 mmHg 92%
07:00 0°C° 0.1 mm 1 mps 763 mmHg 94%
08:00 -1°C° 0.1 mm 0 mps 763 mmHg 96%
09:00 +1°C° 0.3 mm 1 mps 763 mmHg 95%
10:00 +1°C° 0.3 mm 1 mps 763 mmHg 95%
11:00 +1°C° 0.3 mm 1 mps 763 mmHg 95%
12:00 +1°C° 0.4 mm 1 mps 763 mmHg 95%
13:00 -1°C° 0.4 mm 2 mps 763 mmHg 96%
14:00 -1°C° 0.4 mm 2 mps 763 mmHg 96%
15:00 -1°C° 0.3 mm 2 mps 763 mmHg 96%
16:00 -1°C° 0.3 mm 2 mps 762 mmHg 97%
17:00 -1°C° 0.3 mm 3 mps 762 mmHg 97%
18:00 -1°C° 0.2 mm 3 mps 762 mmHg 97%
19:00 -1°C° 0.2 mm 3 mps 762 mmHg 97%
20:00 -1°C° 0.2 mm 3 mps 762 mmHg 97%
21:00 -1°C° 0.1 mm 3 mps 762 mmHg 96%
22:00 -2°C° 0.1 mm 4 mps 762 mmHg 96%
23:00 -2°C° 0.1 mm 4 mps 762 mmHg 96%

Day after tomorrow, 1 December, Tuesday

Time Temperature Precipitation Wind Pressure Humidity
00:00 -2°C° 0.1 mm 4 mps 762 mmHg 94%
01:00 -1°C° 0.1 mm 4 mps 763 mmHg 93%
02:00 -1°C° 0.1 mm 4 mps 763 mmHg 92%
03:00 -1°C° 0 mm 4 mps 763 mmHg 91%
04:00 -1°C° 0 mm 4 mps 763 mmHg 90%
05:00 -1°C° 0 mm 5 mps 763 mmHg 89%
06:00 -2°C° 0 mm 5 mps 764 mmHg 90%
07:00 -2°C° 0 mm 5 mps 764 mmHg 91%
08:00 -4°C° 0 mm 5 mps 765 mmHg 92%
09:00 -2°C° 0 mm 5 mps 765 mmHg 91%
10:00 -2°C° 0 mm 5 mps 765 mmHg 90%
11:00 -2°C° 0 mm 5 mps 766 mmHg 89%
12:00 -2°C° 0 mm 5 mps 766 mmHg 88%
13:00 -2°C° 0 mm 5 mps 767 mmHg 87%
14:00 -1°C° 0 mm 4 mps 767 mmHg 86%
15:00 -2°C° 0 mm 4 mps 767 mmHg 86%
16:00 -2°C° 0 mm 4 mps 767 mmHg 87%
17:00 -2°C° 0 mm 4 mps 768 mmHg 87%
18:00 -2°C° 0 mm 4 mps 768 mmHg 87%
19:00 -3°C° 0 mm 4 mps 769 mmHg 88%
20:00 -3°C° 0 mm 4 mps 769 mmHg 88%
21:00 -3°C° 0 mm 4 mps 770 mmHg 87%
22:00 -2°C° 0 mm 4 mps 770 mmHg 86%
23:00 -2°C° 0 mm 4 mps 770 mmHg 84%

2 December, Wednesday

Time Temperature Precipitation Wind Pressure Humidity
00:00 -1°C° 0 mm 3 mps 770 mmHg 84%
01:00 -1°C° 0 mm 3 mps 771 mmHg 84%
02:00 -1°C° 0 mm 3 mps 771 mmHg 83%
03:00 -1°C° 0 mm 3 mps 771 mmHg 84%
04:00 -1°C° 0 mm 3 mps 771 mmHg 85%
05:00 -2°C° 0 mm 2 mps 770 mmHg 87%
06:00 -2°C° 0 mm 2 mps 771 mmHg 88%
07:00 -4°C° 0 mm 3 mps 771 mmHg 89%
08:00 -4°C° 0 mm 3 mps 771 mmHg 91%
09:00 -4°C° 0 mm 3 mps 771 mmHg 88%
10:00 -4°C° 0 mm 3 mps 771 mmHg 86%
11:00 -4°C° 0 mm 3 mps 771 mmHg 84%
12:00 -2°C° 0 mm 3 mps 771 mmHg 83%
13:00 -2°C° 0 mm 3 mps 770 mmHg 82%
14:00 -2°C° 0 mm 3 mps 770 mmHg 81%
15:00 -2°C° 0 mm 3 mps 770 mmHg 83%
16:00 -4°C° 0 mm 3 mps 770 mmHg 85%
17:00 -4°C° 0 mm 3 mps 769 mmHg 87%
18:00 -4°C° 0 mm 3 mps 769 mmHg 86%
19:00 -4°C° 0 mm 4 mps 769 mmHg 86%
20:00 -4°C° 0 mm 4 mps 769 mmHg 86%
21:00 -4°C° 0 mm 4 mps 769 mmHg 86%
22:00 -4°C° 0 mm 4 mps 768 mmHg 86%
23:00 -4°C° 0 mm 4 mps 768 mmHg 86%

3 December, Thursday

Time Temperature Precipitation Wind Pressure Humidity
00:00 -4°C° 0 mm 4 mps 768 mmHg 88%
01:00 -4°C° 0 mm 4 mps 767 mmHg 89%
02:00 -4°C° 0 mm 4 mps 767 mmHg 91%
03:00 -4°C° 0 mm 4 mps 767 mmHg 91%
04:00 -4°C° 0 mm 4 mps 766 mmHg 91%
05:00 -3°C° 0 mm 4 mps 766 mmHg 90%
06:00 -4°C° 0 mm 5 mps 766 mmHg 88%
07:00 -4°C° 0 mm 5 mps 766 mmHg 86%
08:00 -4°C° 0 mm 5 mps 765 mmHg 83%
09:00 -4°C° 0 mm 5 mps 765 mmHg 82%
10:00 -4°C° 0 mm 5 mps 765 mmHg 82%
11:00 -4°C° 0 mm 5 mps 765 mmHg 81%
12:00 -4°C° 0 mm 5 mps 765 mmHg 80%
13:00 -4°C° 0 mm 5 mps 765 mmHg 79%
14:00 -4°C° 0 mm 5 mps 764 mmHg 78%
15:00 -4°C° 0 mm 5 mps 764 mmHg 80%
16:00 -4°C° 0 mm 5 mps 764 mmHg 82%
17:00 -4°C° 0 mm 5 mps 764 mmHg 85%
18:00 -4°C° 0 mm 5 mps 764 mmHg 86%
19:00 -4°C° 0 mm 5 mps 764 mmHg 87%
20:00 -4°C° 0 mm 5 mps 764 mmHg 88%
21:00 -4°C° 0 mm 5 mps 764 mmHg 88%
22:00 -4°C° 0 mm 5 mps 764 mmHg 87%
23:00 -4°C° 0 mm 5 mps 764 mmHg 86%

4 December, Friday

Time Temperature Precipitation Wind Pressure Humidity
00:00 -4°C° 0 mm 5 mps 763 mmHg 86%
01:00 -2°C° 0 mm 5 mps 763 mmHg 85%
02:00 -2°C° 0 mm 4 mps 763 mmHg 85%
03:00 -2°C° 0 mm 4 mps 763 mmHg 85%
04:00 -2°C° 0 mm 5 mps 763 mmHg 86%
05:00 -2°C° 0 mm 5 mps 762 mmHg 87%
06:00 -2°C° 0 mm 5 mps 762 mmHg 86%
07:00 -1°C° 0 mm 5 mps 762 mmHg 86%
08:00 -1°C° 0 mm 5 mps 762 mmHg 85%
09:00 -2°C° 0 mm 6 mps 762 mmHg 83%
10:00 -2°C° 0 mm 6 mps 762 mmHg 82%
11:00 -1°C° 0 mm 6 mps 762 mmHg 80%
12:00 -1°C° 0 mm 6 mps 762 mmHg 80%
13:00 -1°C° 0 mm 6 mps 762 mmHg 79%
14:00 -1°C° 0 mm 6 mps 761 mmHg 79%
15:00 -1°C° 0 mm 6 mps 761 mmHg 80%
16:00 -1°C° 0 mm 6 mps 761 mmHg 81%
17:00 -1°C° 0 mm 6 mps 761 mmHg 83%
18:00 -1°C° 0 mm 6 mps 761 mmHg 83%
19:00 -1°C° 0 mm 6 mps 761 mmHg 84%
20:00 +1°C° 0 mm 6 mps 761 mmHg 85%
21:00 +1°C° 0 mm 6 mps 761 mmHg 85%
22:00 +1°C° 0 mm 6 mps 761 mmHg 86%
23:00 +1°C° 0 mm 6 mps 761 mmHg 86%
Show more

We Need Your Consent

Meteoprog and our Service Providers may store and access personal data such as cookies, device identifiers or other similar technologies on your device and process such data to personalise content and ads, as well as provide social media features and to analyse the traffic.

  • Store and/or access information on your device

    Cookies, device identifiers or other information can be stored or accessed on your device for the purposes indicated above.

  • Personalised ads and content, ad and content measurement, audience insights, and products development

    Ads and content can be personalised based on a profile. More data can be added to better personalise ads and content. Ad and content performance can be measured. Insights about the audience who saw the ads and content can be derived. Such data can be used to develop or improve user’s experience, systems and software.

By clicking ‘I Agree’ you will allow the use of indicated cookies, device identifiers, web beacons or other similar technologies. Your settings can be changed in the browser on your device.

For certain purposes, legitimate interests may be relied on, rather than consent. You can read more about this in our Privacy and Cookie Policy.